Flag for Germany Weather past 2 weeks in Eschweiler, North Rhine-Westphalia, Germany

Now
26 °F

Sunny.


Feels Like: 21 °F
Forecast: 17 / 36 °F
Wind: 3 mph from North

Location: Noervenich

Current Time: Dec 28, 2014 at 12:43:56 PM

Latest Report: Dec 28, 2014 at 12:00 PM


Visibility: 16 mi

Pressure: 30.31 "Hg

Humidity: 71%

Dew point: 17 °F

Location of EschweilerLocation

Historic Weather in Eschweiler — Graph

°F

Eschweiler temperature yesterday

Maximum temperature yesterday: 37 °F (at 3:00 AM)
Minimum temperature yesterday: 31 °F (at 9:00 PM)
Average temperature yesterday: 34 °F

Past Weeks' High & Low Weather Summary

 TemperatureHumidityPressure
High55 °F (Dec 18, 6:00 PM)99% (Dec 14, 6:00 AM)30.43 "Hg (Dec 14, 6:00 AM)
Low23 °F (Dec 28, 9:00 AM)68% (Dec 24, 2:00 AM)29.38 "Hg (Dec 27, 12:00 PM)
Average43 °F84%30.04 "Hg
* Reported Dec 13 11:00 AM — Dec 28 11:00 AM, Eschweiler, Weather by CustomWeather, © 2014

Note: Actual official high and low records may vary slightly from our data, if they occured in-between our weather recording intervals... More about our weather records

Advertising

Eschweiler weather history for previous 24 hours

 ConditionsComfort  
Time TempWeatherWind HumidityBarometerVisibility
11:00 AM
Dec 28
25 °FSunny.3 mph72%30.29 "Hg16 mi
9:00 AM23 °FSunny.3 mph74%30.18 "Hg12 mi
8:00 AM24 °FPassing clouds.5 mph76%30.12 "Hg9 mi
7:00 AM24 °FPassing clouds.3 mph77%30.05 "Hg9 mi
6:00 AM25 °FPassing clouds.5 mph75%30.01 "Hg9 mi
5:00 AM26 °FPassing clouds.5 mph76%29.96 "Hg9 mi
3:00 AM27 °FPassing clouds.5 mph77%29.85 "Hg9 mi
2:00 AM29 °FPassing clouds.5 mph77%29.80 "Hg6 mi
12:00 AM31 °FLight snow. Overcast.5 mph79%29.72 "Hg5 mi
11:00 PM
Dec 27
31 °FLight snow. Overcast.3 mph80%29.67 "Hg5 mi
9:00 PM31 °FLight snow. Overcast.5 mph91%29.59 "Hg2 mi
8:00 PM31 °FLight snow. Low clouds.6 mph92%29.55 "Hg2 mi
6:00 PM32 °FSnow. Low clouds.5 mph96%29.47 "Hg2 mi
5:00 PM33 °FSnow. Low clouds.3 mph95%29.41 "Hg2 mi
3:00 PM34 °FRain. Low clouds.5 mph94%29.38 "Hg4 mi
2:00 PM35 °FOvercast.5 mph87%29.38 "Hg6 mi
12:00 PM35 °FLight snow. Overcast.6 mph87%29.38 "Hg5 mi
Weather by CustomWeather, © 2014

See weather overviewHow to use our weather pages